Starlink 11190

operational
NORAD ID: 60911 Int'l Des: 2024-154 Owner: SPXS Country: US Constellation: starlink
LEOCIRCULAR

About Starlink 11190

Description loading...

Live Position

Loading 3D Globe...

Upcoming Passes

Altitude History

Altitude vs Time

uPlot chart will show altitude changes over time

Two-Line Element Set

1 60911U 24154J 25349.83467513 .00003021 00000-0 29793-4 0 9993
2 60911 53.1577 184.6642 0000822 80.6044 279.5067 15.69698684 75338
Epoch: Dec 15, 2025 • Age: 19 hours

Current Status

Altitude 373.6 km
Velocity 7.68 km/s
Sub-Earth Point -40.52°S, 84.3°E
Launch Date Aug 31, 2024
Age 1.2 years
Type internet

Technical Details

Classification Payload
Mass 960.00 kg
Dry Mass 910.00 kg
Total Mass 960.00 kg
Length 0.30 m
Diameter 4.10 m
Span 29.00 m
Shape Box + pan
Manufacturer SPXS
Bus Type Starlink V2MD
Phase Status In Orbit
Owner/State SPXS/US

Large Constellations

Loading constellations...